Marshfield, MA

3:19 AM EST on November 12, 2019 (GMT -0500)
Marshfield

Weather History for KGHG - July, 2019

Change the Weather History Date:

Friday, July 12, 2019

  Actual Average (KPYM) Record (KPYM)
Temperature  
Mean Temperature 74 °F -  
Max Temperature 80 °F 82 °F 97 °F (1988)
Min Temperature 69 °F 59 °F 45 °F (2002)
Cooling Degree Days 10    
Growing Degree Days 24 (Base 50)    
Moisture  
Dew Point 72 °F    
Average Humidity 94    
Maximum Humidity 100    
Minimum Humidity 74    
Precipitation  
Precipitation 2.42 in - - ()
Sea Level Pressure  
Sea Level Pressure 29.71 in    
Wind  
Wind Speed 4 mph (East)    
Max Wind Speed 9 mph    
Max Gust Speed 13 mph    
Visibility 7 miles    
Events Rain    
Averages and records for this station are not official NWS values.
T = Trace of Precipitation, MM = Missing Value Source: NWS Daily Summary

Daily Weather History Graph

Daily Weather History Graph

Search for Another Location

Airport or City:

Astronomy

Jul. 12, 2019 Rise Set
Actual Time 5:17 AM EDT 8:18 PM EDT
Civil Twilight 4:43 AM EDT 8:52 PM EDT
Nautical Twilight 4:00 AM EDT 9:35 PM EDT
Astronomical Twilight 3:10 AM EDT 10:25 PM EDT
Moon 4:32 PM EDT 2:01 AM EDT
Length of Visible Light 16h 08m
Length of Day
15h 01m
Waxing Gibbous, 82% of the Moon is Illuminated
Jul 12
Waxing Gibbous
Jul 16
Full
Jul 24
Last Quarter
Jul 31
New
Aug 7
First Quarter

Hourly Weather History & Observations

Time (EDT) Temp. Heat Index Dew Point Humidity Pressure Visibility Wind Dir Wind Speed Gust Speed Precip Events Conditions
12:15 AM 73.4 °F - 68.0 °F 83% 29.83 in 10.0 mi South 6.9 mph - N/A   Clear
12:35 AM 73.4 °F - 68.0 °F 83% 29.82 in 10.0 mi South 8.1 mph - N/A   Clear
12:55 AM 73.4 °F - 68.0 °F 83% 29.82 in 10.0 mi South 8.1 mph - N/A   Partly Cloudy
1:15 AM 73.4 °F - 68.0 °F 83% 29.81 in 10.0 mi SSE 5.8 mph - N/A   Scattered Clouds
1:35 AM 73.4 °F - 69.8 °F 88% 29.80 in 9.0 mi Variable 3.5 mph - N/A   Mostly Cloudy
1:55 AM 71.6 °F - 69.8 °F 94% 29.80 in 4.0 mi ESE 4.6 mph - 0.02 in   Light Drizzle
2:15 AM 69.8 °F - 69.8 °F 100% 29.79 in 10.0 mi ESE 3.5 mph - N/A   Overcast
2:35 AM 69.8 °F - 69.8 °F 100% 29.78 in 9.0 mi SE 4.6 mph - N/A   Overcast
2:55 AM 69.8 °F - 69.8 °F 100% 29.77 in 6.0 mi Calm Calm - 0.02 in Rain Light Rain
3:15 AM 69.8 °F - 69.8 °F 100% 29.76 in 2.0 mi Calm Calm - N/A Rain Rain
3:35 AM 69.8 °F - 69.8 °F 100% 29.75 in 1.5 mi Calm Calm - N/A Rain Rain
3:55 AM 69.8 °F - 69.8 °F 100% 29.74 in 1.2 mi NW 4.6 mph - 0.65 in Rain Heavy Rain
4:15 AM 71.6 °F - 71.6 °F 100% 29.74 in 2.5 mi SE 4.6 mph - N/A Rain Light Rain
4:35 AM 71.6 °F - 71.6 °F 100% 29.72 in 0.8 mi Calm Calm - N/A Rain Heavy Rain
4:55 AM 71.6 °F - 71.6 °F 100% 29.72 in 2.5 mi SSW 3.5 mph - 0.48 in Rain Rain
5:15 AM 73.4 °F - 73.4 °F 100% 29.70 in 2.5 mi Variable 3.5 mph - N/A Rain Rain
5:35 AM 73.4 °F - 73.4 °F 100% 29.70 in 0.8 mi ENE 3.5 mph - N/A Rain Rain
5:55 AM 71.6 °F - 71.6 °F 100% 29.71 in 1.2 mi Calm Calm - 0.74 in Rain Heavy Rain
6:15 AM 71.6 °F - 71.6 °F 100% 29.70 in 5.0 mi Calm Calm - N/A Rain Light Rain
6:35 AM 73.4 °F - 73.4 °F 100% 29.70 in 10.0 mi ENE 4.6 mph - N/A   Mostly Cloudy
6:55 AM 71.6 °F - 71.6 °F 100% 29.71 in 3.0 mi Calm Calm - 0.10 in Rain Light Rain
7:15 AM 71.6 °F - 71.6 °F 100% 29.71 in 2.0 mi Calm Calm - N/A Rain Light Rain
7:35 AM 71.6 °F - 71.6 °F 100% 29.70 in 1.5 mi ENE 5.8 mph - N/A Rain Rain
7:55 AM 71.6 °F - 71.6 °F 100% 29.70 in 1.5 mi Calm Calm - 0.25 in Rain Light Rain
8:15 AM 71.6 °F - 71.6 °F 100% 29.70 in 4.0 mi NE 5.8 mph - N/A Rain Light Rain
8:35 AM 71.6 °F - 71.6 °F 100% 29.70 in 2.5 mi SE 5.8 mph - N/A Rain Light Rain
8:55 AM 71.6 °F - 71.6 °F 100% 29.69 in 4.0 mi East 5.8 mph - 0.02 in   Overcast
9:15 AM 71.6 °F - 71.6 °F 100% 29.69 in 3.0 mi East 4.6 mph - N/A   Overcast
9:35 AM 73.4 °F - 73.4 °F 100% 29.68 in 9.0 mi East 5.8 mph - N/A   Overcast
9:55 AM 73.4 °F - 73.4 °F 100% 29.68 in 7.0 mi Variable 4.6 mph - N/A   Overcast
10:15 AM 73.4 °F - 73.4 °F 100% 29.68 in 0.5 mi ENE 8.1 mph - N/A Rain Heavy Rain
10:35 AM 73.4 °F - 73.4 °F 100% 29.67 in 3.0 mi NE 5.8 mph - N/A   Overcast
10:55 AM 73.4 °F - 73.4 °F 100% 29.68 in 6.0 mi Variable 4.6 mph 11.5 mph 0.12 in   Overcast
11:15 AM 73.4 °F - 73.4 °F 100% 29.68 in 10.0 mi ENE 6.9 mph - N/A   Overcast
11:35 AM 75.2 °F - 73.4 °F 94% 29.67 in 10.0 mi Variable 4.6 mph - N/A   Overcast
11:55 AM 77.0 °F - 71.6 °F 83% 29.68 in 10.0 mi ENE 5.8 mph - N/A   Overcast
12:15 PM 77.0 °F - 73.4 °F 89% 29.68 in 10.0 mi Variable 4.6 mph - N/A   Overcast
12:35 PM 77.0 °F - 73.4 °F 89% 29.67 in 10.0 mi Variable 6.9 mph - N/A   Overcast
12:55 PM 78.8 °F - 71.6 °F 78% 29.67 in 10.0 mi Variable 5.8 mph - N/A   Scattered Clouds
1:15 PM 78.8 °F - 71.6 °F 78% 29.67 in 10.0 mi North 6.9 mph - N/A   Partly Cloudy
1:35 PM 77.0 °F - 71.6 °F 83% 29.67 in 10.0 mi NNW 8.1 mph - N/A   Clear
1:55 PM 78.8 °F - 71.6 °F 78% 29.67 in 10.0 mi Variable 5.8 mph - N/A   Clear
2:15 PM 80.6 °F 84.6 °F 71.6 °F 74% 29.67 in 10.0 mi NE 8.1 mph - N/A   Clear
2:35 PM 78.8 °F - 71.6 °F 78% 29.67 in 10.0 mi NE 6.9 mph - N/A   Clear
2:55 PM 77.0 °F - 71.6 °F 83% 29.67 in 10.0 mi ENE 9.2 mph - N/A   Clear
3:15 PM 77.0 °F - 71.6 °F 83% 29.67 in 10.0 mi ENE 6.9 mph - N/A   Clear
3:35 PM 77.0 °F - 71.6 °F 83% 29.66 in 10.0 mi ENE 6.9 mph - N/A   Clear
3:55 PM 77.0 °F - 71.6 °F 83% 29.66 in 10.0 mi NE 6.9 mph 12.7 mph N/A   Clear
4:15 PM 78.8 °F - 71.6 °F 78% 29.66 in 9.0 mi Variable 6.9 mph - N/A   Clear
4:35 PM 78.8 °F - 71.6 °F 78% 29.67 in 10.0 mi ENE 6.9 mph - N/A   Clear
4:55 PM 77.0 °F - 71.6 °F 83% 29.67 in 10.0 mi Variable 5.8 mph - N/A   Clear
5:15 PM 75.2 °F - 73.4 °F 94% 29.67 in 8.0 mi Calm Calm - N/A Rain Light Rain
5:35 PM 73.4 °F - 73.4 °F 100% 29.67 in 10.0 mi Calm Calm - N/A   Scattered Clouds
5:55 PM 73.4 °F - 73.4 °F 100% 29.68 in 10.0 mi Calm Calm - 0.01 in   Mostly Cloudy
6:15 PM 75.2 °F - 73.4 °F 94% 29.68 in 10.0 mi East 4.6 mph - N/A   Scattered Clouds
6:35 PM 75.2 °F - 73.4 °F 94% 29.67 in 10.0 mi NE 3.5 mph - N/A   Scattered Clouds
6:55 PM 75.2 °F - 71.6 °F 89% 29.69 in 10.0 mi Calm Calm - N/A   Partly Cloudy
7:15 PM 75.2 °F - 71.6 °F 89% 29.71 in 10.0 mi Calm Calm - N/A   Partly Cloudy
7:35 PM 75.2 °F - 71.6 °F 89% 29.72 in 10.0 mi Calm Calm - N/A   Clear
7:55 PM 75.2 °F - 71.6 °F 89% 29.73 in 10.0 mi Calm Calm - N/A   Clear
8:15 PM 75.2 °F - 71.6 °F 89% 29.72 in 10.0 mi Calm Calm - N/A   Scattered Clouds
8:35 PM 73.4 °F - 73.4 °F 100% 29.73 in 10.0 mi Calm Calm - N/A   Clear
8:55 PM 71.6 °F - 71.6 °F 100% 29.73 in 10.0 mi Calm Calm - N/A   Clear
9:15 PM 71.6 °F - 71.6 °F 100% 29.75 in 10.0 mi Calm Calm - N/A   Clear
9:35 PM 71.6 °F - 71.6 °F 100% 29.75 in 10.0 mi Calm Calm - N/A   Partly Cloudy
9:55 PM 73.4 °F - 73.4 °F 100% 29.75 in 10.0 mi Calm Calm - N/A   Partly Cloudy
10:15 PM 71.6 °F - 71.6 °F 100% 29.75 in 10.0 mi Calm Calm - N/A   Scattered Clouds
10:35 PM 71.6 °F - 71.6 °F 100% 29.76 in 10.0 mi Variable 4.6 mph - N/A   Mostly Cloudy
10:55 PM 71.6 °F - 71.6 °F 100% 29.77 in 10.0 mi Calm Calm - N/A   Overcast
11:15 PM 71.6 °F - 71.6 °F 100% 29.77 in 3.0 mi Calm Calm - N/A   Light Drizzle
11:35 PM 71.6 °F - 71.6 °F 100% 29.78 in 3.0 mi Calm Calm - N/A   Mostly Cloudy
11:55 PM 71.6 °F - 71.6 °F 100% 29.77 in 5.0 mi Calm Calm - 0.01 in   Mostly Cloudy